Weather in Monastir

Tunisia     35°44′43″N   10°45′21″E
temp.,
°C
wind,
m/s
gust,
m/s
humid.,
%
clouds,
%
prec.,
mm/h
press.,
hPa
HPBL,
m
24 september, fri
fri2401:00+25sse578097 0.0 1018435
04:00+25s4782100 0.0 1017508
07:00+25s578057 0.0 1018551
10:00+29s575946 0.0 1018577
13:00+33s674399 0.0 1016741
16:00+34s663823 0.0 1014817
19:00+27sse9117221 0.0 1016378
22:00+26sse9137764 0.0 1017394
25 september, sat
sat2501:00+26sse711825 0.0 1017386
04:00+25sse710865 0.0 1016363
07:00+25s69865 0.0 1016327
10:00+30sse45560 0.0 1018393
13:00+33se55474 0.0 1016700
16:00+32se109575 0.0 1015474
19:00+27se810765 0.0 1017320
22:00+26sse69795 0.0 1019378
26 september, sun
sun2601:00+26sse468283 0.0 1019332
04:00+25s468478 0.0 1019300
07:00+25sse468245 0.0 1019299
10:00+29sse4460100 0.0 1020450
13:00+31se6651100 0.0 1019701
16:00+31sse6648100 0.0 1017588
19:00+28sse7959100 0.0 1018274
22:00+26sse576792 0.0 1019243
27 september, mon
mon2701:00+25sse68707 0.0 1018235
04:00+25s57715 0.0 1017234
07:00+25ssw236694 0.0 1018178
10:00+28nw12535 0.0 1019405
13:00+28ne535797 0.0 1018444
16:00+28ene4457100 0.0 1017328
19:00+26ene5673100 0.0 1018395
22:00+26n5771100 0.0 1019732
28 september, tue
tue2801:00+25nnw686360 0.0 1019487
04:00+25n796266 0.0 1018578
07:00+25nnw79565 0.0 1018666
10:00+26nnw78545 0.0 1019743
13:00+28nne45490 0.0 1018787
16:00+27ene66535 0.0 1017426
19:00+26nne8106029 0.0 1018596
22:00+26nnw475758 0.0 1019600